Regional Weather Roundup
Issued by NWS

Home | Current Version | Previous Version | Text Only | Print | Product List | Glossary On
Versions: 1 2 3 4 5 6 7 8 9 10 11 12 13 14 15 16 17 18 19 20 21 22 23 24 25 26 27 28 29 30 31 32 33 34 35 36 37 38 39 40 41 42 43 44 45 46 47 48 49 50
000
ASUS43 KLMK 291610
RWRKY
KENTUCKY REGIONAL WEATHER ROUNDUP
NATIONAL WEATHER SERVICE LOUISVILLE KY
1100 AM EST MON DEC 29 2014

NOTE "FAIR" INDICATES FEW OR NO CLOUDS BELOW 12,000 FEET
WITH NO SIGNIFICANT WEATHER AND/OR OBSTRUCTIONS TO VISIBILITY.

KYZ001>023-026-027-061>063-070>075-291700-
WESTERN AND SOUTH CENTRAL KENTUCKY

CITY           SKY/WX    TMP DP  RH WIND       PRES   REMARKS
PADUCAH        CLOUDY    33  26  75 NE10      30.29R WCI  25
HENDERSON      CLOUDY    34  25  69 NE8       30.30S WCI  27
OWENSBORO      CLOUDY    36  28  73 NE9       30.29S WCI  29
HOPKINSVILLE   CLOUDY    35  29  79 N12       30.26R WCI  27
BOWLING GREEN  CLOUDY    39  31  72 NE8       30.26R WCI  33
GLASGOW        CLOUDY    36  32  85 NE8       30.24S WCI  30
$$

KYZ024-025-028>034-038-045-046-053-291700-
NORTH CENTRAL KENTUCKY

CITY           SKY/WX    TMP DP  RH WIND       PRES   REMARKS
LOUISVILLE/SDF CLOUDY    36  26  67 NE8       30.30R WCI  30
LOUISVILLE/LOU CLOUDY    36  26  67 NE9       30.30R WCI  29
FORT KNOX      CLOUDY    35  29  81 N9        30.25F WCI  27
$$

KYZ035>037-039>044-047>052-055>060-089>105-291700-
NORTHEAST KENTUCKY

CITY           SKY/WX    TMP DP  RH WIND       PRES   REMARKS
LEXINGTON      CLOUDY    33  30  88 NE10      30.26R FOG     WCI  25
COVINGTON      PTSUNNY   33  23  66 NE7       30.29R WCI  27
FRANKFORT      CLOUDY    34  28  79 NE6       30.26R WCI  29
$$

KYZ054-064>069-076>088-106>120-291700-
SOUTHEAST KENTUCKY

CITY           SKY/WX    TMP DP  RH WIND       PRES   REMARKS
JACKSON        CLOUDY    34  33  96 NE6       30.20R FOG     WCI  29
LONDON         LGT RAIN  37  33  85 N9        30.20R FOG     WCI  30
SOMERSET       CLOUDY    34  34 100 NE7       30.23R FOG     WCI  28
MIDDLESBORO    CLOUDY    41  40  95 N7        30.17R FOG
MONTICELLO     LGT SNOW  37  37 100 N8        30.24R VSB 3/4 WCI  31
$$



USA.gov is the U.S. government's official web portal to all federal, state and local government web resources and services.